RH
44 47 50 52 52 54 54 52 53 45 50 52 50 47 36 28 26 30 29 31 28 25 19 16 17 17 29 29 36 45 61 59 62 46 43 48 46 45 42 47 47 57 51 41
53 54 53 48 52 60 58 59 53 54 61 56 56 48 42 44 39 36 34 38 36 35 32 30 28 30 24 40 44 43 42 66 66 51 42 47 54 60 57 52 52 45 54 47
51 56 51 40 42 57 63 65 63 62 65 60 58 55 55 56 52 51 47 42 41 47 46 43 42 42 36 38 42 46 44 45 44 50 68 57 55 58 64 72 63 49 43 43
61 54 52 50 45 62 68 67 64 57 61 58 65 68 66 65 65 62 60 54 45 43 46 46 47 47 46 41 38 37 45 54 50 47 45 50 58 53 51 58 57 55 39 44
65 65 57 53 52 71 74 66 62 61 61 59 65 74 71 69 71 66 59 57 56 67 71 72 75 72 65 60 50 54 62 66 64 56 50 49 47 54 52 50 55 53 47 41
65 62 60 56 50 68 71 65 65 73 62 67 75 75 75 72 76 64 60 63 86 96 94 95 90 83 76 69 63 56 53 57 75 64 53 58 60 45 61 51 42 39 44 40
61 58 56 58 49 59 68 68 67 83 74 78 73 75 75 76 72 69 77 88 97 93 97 98 93 87 80 79 67 62 55 56 74 78 82 77 37 58 72 68 46 41 38 42
55 56 59 54 43 48 66 68 76 83 82 83 83 84 84 88 82 87 94 97 92 95 99 98 97 80 79 73 65 62 57 56 55 70 87 56 40 62 72 74 57 51 41 42
55 54 55 48 45 48 59 62 65 78 88 83 79 89 88 89 96 95 93 96 97 99 98 99 96 85 76 67 67 72 65 69 71 67 85 65 36 58 68 69 66 72 63 57
62 61 61 56 62 72 83 76 76 88 88 86 95 93 95 91 97 96 93 93 96 99 99 98 94 84 79 81 76 78 76 88 81 62 79 60 54 62 68 78 86 81 76 68
87 88 88 91 94 93 95 94 96 95 92 92 90 90 93 93 92 96 91 95 96 98 98 97 93 87 76 69 64 58 68 86 90 82 89 80 82 80 83 83 89 85 84 77
95 98 98 98 98 99 98 98 98 99 96 89 90 90 91 88 86 87 90 91 91 97 95 91 86 84 79 72 69 63 62 50 71 98 91 84 86 80 80 81 80 81 85 80
97 97 98 98 98 98 98 99 99 99 98 94 91 88 83 86 86 84 86 89 89 91 95 97 94 91 79 79 69 66 59 55 53 60 70 84 83 77 78 80 75 76 83 86
89 92 93 95 98 98 98 98 98 99 98 98 91 85 81 77 82 85 85 85 89 90 94 96 95 90 90 80 70 66 61 55 49 46 51 64 73 75 67 66 68 75 79 79
89 89 90 87 93 97 99 99 98 98 96 97 94 85 81 80 82 84 87 90 93 96 98 94 88 87 91 84 81 73 65 63 59 45 40 56 66 70 66 67 70 73 75 74
91 90 89 88 89 93 97 97 97 98 99 98 96 89 83 82 81 82 87 89 94 97 98 96 89 80 82 82 75 65 64 61 53 42 42 48 63 68 67 61 72 69 70 78
93 94 97 99 98 95 89 83 74 81 88 89 87 77 71 72 76 83 88 93 97 99 98 95 91 86 86 81 71 62 62 60 59 50 48 52 60 64 64 58 66 79 73 81
69 86 99 98 99 99 98 95 91 90 96 94 91 80 75 74 73 77 78 80 97 98 96 91 90 91 89 78 61 59 60 58 55 49 45 44 53 65 67 62 71 83 77 79
68 79 99 99 98 96 93 97 97 96 95 93 87 80 83 80 83 86 78 72 82 92 93 88 91 87 80 64 60 59 59 59 50 40 40 45 48 66 67 68 70 84 88 82
85 97 98 98 99 98 97 99 98 98 95 89 84 82 83 86 96 84 87 80 82 87 78 89 94 77 62 60 60 62 63 59 45 42 42 56 62 64 72 72 78 89 89 82
94 98 96 96 98 98 99 98 95 90 87 80 80 82 82 85 93 88 86 98 93 87 80 88 87 71 63 65 61 63 65 58 49 46 46 61 80 76 76 73 81 89 84 78
93 88 94 97 98 97 97 88 86 79 77 76 79 83 84 82 85 86 92 91 96 97 90 94 79 64 68 70 66 62 62 59 53 48 44 50 77 84 81 79 85 86 82 78
91 90 94 94 94 90 83 80 81 81 77 79 79 81 82 86 85 92 98 93 95 96 98 87 75 77 75 71 68 65 62 57 53 52 47 46 74 87 82 83 81 89 80 79
85 85 88 86 83 81 78 76 77 83 89 83 90 96 95 92 93 97 97 96 97 97 95 84 82 82 79 76 73 70 65 60 57 54 52 51 56 81 86 85 92 88 84 83
76 74 78 77 78 83 84 81 83 83 83 86 92 92 93 97 98 93 89 92 92 88 83 85 84 84 83 79 75 69 68 62 61 63 63 69 68 73 90 91 93 91 85 87
82 79 74 75 75 77 80 80 80 83 84 86 88 89 89 91 92 90 91 91 87 87 89 90 88 91 92 79 76 72 71 69 70 74 81 87 78 82 90 91 91 91 92 95
88 87 83 81 80 81 79 80 79 81 84 84 88 88 92 89 89 91 92 91 91 90 95 96 93 94 91 89 76 77 78 83 86 90 95 98 91 89 91 96 96 95 97 97